TIANWANG 1C (TW-1C)
1 40926U 15051B   19258.76104516  .00009029  00000-0  12513-3 0  9993
2 40926  97.1269 304.8651 0008913  49.4746  44.4036 15.57254763224014
TIANWANG 1B (TW-1B)
1 40927U 15051C   19258.87530627  .00008473  00000-0  12499-3 0  9997
2 40927  97.1308 304.1691 0009402  60.3479  26.0808 15.55574771223873
TIANWANG 1A (TW-1A)
1 40928U 15051D   19258.78172421  .00002202  00000-0  54950-4 0  9995
2 40928  97.1391 288.1042 0012556 106.0315 342.3287 15.41174760222893
LAPAN A2
1 40931U 15052B   19258.03310460  .00000586  00000-0 -74878-5 0  9991
2 40931   5.9995 146.5890 0013692 324.2684  35.7396 14.76612784214342
LQSAT
1 40958U 15057A   19258.75046951 -.00000011 +00000-0 +59060-5 0  9994
2 40958 097.8915 325.5079 0017154 318.8789 041.1126 14.73088372211923
CHUBUSAT 2
1 41338U 16012B   19258.51901119  .00000278  00000-0  14857-4 0  9997
2 41338  31.0034 300.2537 0013817 263.2578  96.6485 15.00178075196261
CHUBUSAT 3
1 41339U 16012C   19258.47815828  .00000265  00000-0  13779-4 0  9992
2 41339  31.0115 298.4900 0013754 271.0207  88.8851 15.00351482196254
OUFTI-1
1 41458U 16025C   19258.82757000  .00000678  00000-0  38279-4 0  9994
2 41458  98.1009 350.2043 0167129  57.6619 304.0664 15.06012509185981
E-STAR-2
1 41459U 16025D   19258.79907096  .00001697  00000-0  89883-4 0  9992
2 41459  98.1016 349.7839 0167793  59.1868 302.5728 15.05643699185956
AAUSAT 4
1 41460U 16025E   19258.79470603  .00001924  00000-0  99106-4 0  9995
2 41460  98.0955 351.2475 0157710  51.0483 310.4667 15.07602048186096
NUSAT 1
1 41557U 16033B   19258.88653286 +.00000744 +00000-0 +30484-4 0  9994
2 41557 097.4162 345.8674 0013308 349.7799 010.3168 15.27366758183701
BEESAT 4
1 41619U 16040W   19258.85813796 +.00000910 +00000-0 +41252-4 0  9992
2 41619 097.3596 319.3894 0012921 073.2491 287.0163 15.23291281167432
PRATHAM
1 41783U 16059A   19258.71613754 +.00000042 +00000-0 +17370-4 0  9991
2 41783 098.0592 316.2936 0034910 103.7492 256.7599 14.63008696158562
ALSAT 1N
1 41789U 16059G   19258.90214437 +.00000043 +00000-0 +17115-4 0  9991
2 41789 098.0624 318.6664 0029538 092.3864 268.0706 14.64260959158709
NAYIF 1
1 42017U 17008BX  19258.89961372 +.00000949 +00000-0 +40071-4 0  9998
2 42017 097.3958 325.0481 0005530 200.1415 159.9606 15.25705561143524
MAX VALIER SAT
1 42778U 17036P   19258.74094191 +.00000572 +00000-0 +27938-4 0  9992
2 42778 097.3462 314.4102 0010618 271.7970 088.2050 15.22128832123783
